Orbital Elements at Epoch 2459000.5 (2020-May-31.0) TDB
Reference: JPL 14 (heliocentric ecliptic J2000)
Element | Value | Uncertainty (1-sigma) | Units |
e | .9533013628578105 | 7.8491e-06 | |
a | 187.0668326697295 | 0.032228 | au |
q | 8.735766140182371 | 4.294e-05 | au |
i | 125.35044406 | 7.5004e-06 | deg |
node | 275.9665443945167 | 2.6227e-05 | deg |
peri | 153.0006084481428 | 0.00038826 | deg |
M | 359.4290194074241 | 0.00014944 | deg |
tp | 2460482.719295592730 (2024-Jun-21.21929559) | 0.0050463 | TDB |
period | 934530.7937807268 2558.61 | 241.5 0.6612 | d yr |
n | .0003852200509558259 | 9.9548e-08 | deg/d |
Q | 365.3978991992765 | 0.06295 | au |
|
| | Orbit Determination Parameters
Additional Information
|